FW3224 Weather Reports


Display with metric or nautical units.
time (UTC)temp
F
wind
direction
speed
MPH
gust
MPH
rain 1hr
in
rain 24hr
in
rain mn
in
humidity
%
barometer
mb
20260831163536 55 289 0.0 3.0 0.00 0.01 0.00 91 1026.3
20260831163040 55 298 1.0 3.0 0.00 0.01 0.00 91 1026.3
20260831162534 56 300 1.0 3.0 0.00 0.01 0.00 91 1026.4
20260831162035 56 288 0.0 2.0 0.00 0.01 0.00 91 1026.6
20260831161534 56 291 0.0 2.0 0.00 0.01 0.00 91 1026.6
20260831161032 56 302 0.0 2.0 0.00 0.01 0.00 92 1026.6
20260831160532 56 301 0.0 4.0 0.00 0.01 0.00 92 1026.7
20260831160031 56 303 2.0 4.0 0.00 0.01 0.00 92 1026.8
20260831155530 56 304 2.0 3.0 0.00 0.01 0.00 93 1026.8
20260831155029 56 310 2.0 3.0 0.00 0.01 0.00 93 1026.8
20260831154530 55 325 1.0 4.0 0.00 0.01 0.00 93 1026.9
20260831154028 55 327 1.0 4.0 0.00 0.01 0.00 93 1027.0
20260831153525 55 332 0.0 3.0 0.00 0.01 0.00 93 1027.1
20260831153027 55 326 1.0 4.0 0.00 0.01 0.00 93 1027.1
20260831152524 55 306 1.0 4.0 0.00 0.01 0.00 94 1027.2
20260831152024 55 319 1.0 4.0 0.00 0.01 0.00 94 1027.3
20260831151524 55 317 2.0 4.0 0.00 0.01 0.00 94 1027.3
20260831151023 55 331 1.0 4.0 0.00 0.01 0.00 94 1027.4
20260831150524 55 323 2.0 4.0 0.00 0.01 0.00 94 1027.4
20260831150021 55 280 0.0 2.0 0.00 0.01 0.00 94 1027.4
20260831145520 55 280 0.0 3.0 0.00 0.01 0.00 94 1027.5
20260831145021 55 303 0.0 4.0 0.00 0.01 0.00 94 1027.5
20260831144520 55 280 0.0 3.0 0.00 0.01 0.00 94 1027.5
20260831144021 55 284 1.0 4.0 0.00 0.01 0.00 94 1027.6
20260831143519 55 278 2.0 4.0 0.00 0.01 0.00 94 1027.7
20260831143021 55 261 1.0 4.0 0.00 0.01 0.00 94 1027.6
20260831142518 55 272 1.0 4.0 0.00 0.01 0.00 94 1027.7
20260831142017 55 292 0.0 3.0 0.00 0.01 0.00 94 1027.7
20260831141517 55 288 0.0 3.0 0.00 0.01 0.00 94 1027.6
20260831141017 55 294 0.0 0.0 0.00 0.01 0.00 94 1027.6
20260831140516 55 294 0.0 0.0 0.00 0.01 0.00 94 1027.7
20260831140014 55 294 0.0 0.0 0.00 0.01 0.00 94 1027.7
20260831135514 55 294 0.0 0.0 0.00 0.01 0.01 94 1027.7
20260831135014 55 294 0.0 0.0 0.00 0.01 0.01 93 1027.8
20260831134513 55 294 0.0 0.0 0.00 0.01 0.01 93 1027.8
20260831134012 55 294 0.0 0.0 0.00 0.01 0.01 93 1027.8
20260831133516 55 294 0.0 0.0 0.00 0.01 0.01 93 1027.9
20260831133012 55 294 0.0 0.0 0.00 0.01 0.01 93 1027.9
20260831132512 55 294 0.0 0.0 0.00 0.01 0.01 93 1028.0
20260831132012 55 294 0.0 0.0 0.00 0.01 0.01 93 1028.0
20260831131512 56 294 0.0 0.0 0.00 0.01 0.01 92 1028.1
20260831131012 56 294 0.0 0.0 0.00 0.01 0.01 92 1028.2
20260831130511 56 294 0.0 0.0 0.00 0.01 0.01 92 1028.2
20260831130015 56 292 0.0 0.0 0.00 0.01 0.01 92 1028.2
20260831125511 56 292 0.0 0.0 0.00 0.01 0.01 92 1028.3
20260831125012 56 292 0.0 0.0 0.00 0.01 0.01 92 1028.3
20260831124510 57 292 0.0 0.0 0.00 0.01 0.01 92 1028.3
20260831124010 57 292 0.0 0.0 0.00 0.01 0.01 92 1028.3
20260831123514 57 292 0.0 0.0 0.00 0.01 0.01 92 1028.3
20260831123010 57 292 0.0 0.0 0.00 0.01 0.01 92 1028.4
20260831122510 57 292 0.0 0.0 0.00 0.01 0.01 92 1028.4
20260831122010 57 281 0.0 0.0 0.00 0.01 0.01 91 1028.5
20260831121510 58 289 0.0 0.0 0.00 0.01 0.01 91 1028.5
20260831121010 58 304 0.0 0.0 0.00 0.01 0.01 91 1028.6
20260831120510 58 289 0.0 0.0 0.00 0.01 0.01 91 1028.6
20260831120015 58 289 0.0 4.0 0.00 0.01 0.01 91 1028.6
20260831115508 58 317 1.0 4.0 0.00 0.01 0.01 91 1028.7
20260831115009 58 302 0.0 3.0 0.00 0.01 0.01 90 1028.8
20260831114523 58 232 0.0 3.0 0.00 0.01 0.01 90 1028.8
20260831114008 58 245 0.0 3.0 0.00 0.01 0.01 90 1028.8
20260831113508 59 19 0.0 2.0 0.00 0.01 0.01 90 1028.8
20260831113008 59 292 0.0 5.0 0.00 0.01 0.01 90 1028.9
20260831112508 59 277 0.0 5.0 0.00 0.01 0.01 89 1028.9
20260831112007 59 313 1.0 5.0 0.00 0.01 0.01 89 1028.9
20260831111506 59 258 0.0 4.0 0.00 0.01 0.01 89 1028.9
20260831111011 59 343 1.0 4.0 0.00 0.01 0.01 89 1028.8
20260831110511 59 309 0.0 4.0 0.00 0.01 0.01 89 1028.8
20260831110006 59 355 1.0 6.0 0.00 0.01 0.01 89 1028.8
20260831105506 59 263 1.0 5.0 0.00 0.01 0.01 89 1028.8
20260831105006 59 286 2.0 5.0 0.00 0.01 0.01 88 1028.8
20260831104506 59 11 0.0 4.0 0.00 0.01 0.01 88 1028.8
20260831104005 59 336 1.0 4.0 0.00 0.01 0.01 88 1028.8
20260831103507 59 284 0.0 5.0 0.00 0.01 0.01 87 1028.8
20260831103005 59 297 1.0 5.0 0.00 0.01 0.01 87 1028.8
20260831102505 59 288 1.0 4.0 0.00 0.01 0.01 87 1028.8
20260831102005 59 254 1.0 4.0 0.00 0.01 0.01 87 1028.8
20260831101505 59 267 0.0 3.0 0.00 0.01 0.01 86 1028.8
20260831101005 60 275 1.0 5.0 0.00 0.01 0.01 86 1028.8
20260831100504 60 317 1.0 5.0 0.00 0.01 0.01 86 1028.9
20260831100004 60 327 1.0 4.0 0.00 0.01 0.01 86 1028.9
20260831095503 60 304 1.0 3.0 0.00 0.01 0.01 86 1028.9
20260831095003 60 271 1.0 4.0 0.00 0.01 0.01 86 1028.8
20260831094504 60 325 1.0 4.0 0.00 0.01 0.01 86 1028.9
20260831094003 60 279 0.0 4.0 0.00 0.01 0.01 85 1028.9
20260831093506 60 282 1.0 4.0 0.00 0.01 0.01 86 1028.9
20260831093004 60 340 0.0 5.0 0.00 0.01 0.01 86 1028.9
20260831092504 60 272 1.0 5.0 0.00 0.01 0.01 85 1028.9
20260831092002 60 347 0.0 3.0 0.00 0.01 0.01 85 1028.9
20260831091507 60 286 0.0 7.0 0.00 0.01 0.01 85 1028.9
20260831091002 60 311 2.0 7.0 0.00 0.01 0.01 85 1028.9
20260831090502 60 290 1.0 4.0 0.00 0.01 0.01 85 1028.8
20260831090002 61 304 0.0 6.0 0.00 0.01 0.01 85 1028.8
20260831085501 61 281 1.0 6.0 0.00 0.01 0.01 84 1028.8
20260831085001 61 296 1.0 4.0 0.00 0.01 0.01 84 1028.7
20260831084501 61 285 0.0 4.0 0.00 0.01 0.01 84 1028.6
20260831084002 61 13 1.0 4.0 0.00 0.01 0.01 84 1028.6
20260831083502 61 339 0.0 4.0 0.00 0.01 0.01 83 1028.6
20260831083110 61 327 1.0 3.0 0.00 0.01 0.01 83 1028.5
20260831082600 61 333 0.0 3.0 0.00 0.01 0.01 83 1028.5
20260831082502 61 333 1.0 3.0 0.00 0.01 0.01 83 1028.5
20260831082002 61 344 0.0 3.0 0.00 0.01 0.01 82 1028.5
20260831081607 61 314 0.0 3.0 0.00 0.01 0.01 82 1028.5
20260831081101 61 355 0.0 4.0 0.00 0.01 0.01 82 1028.5
20260831080604 61 321 1.0 5.0 0.00 0.01 0.01 81 1028.5
20260831080100 61 66 0.0 5.0 0.00 0.01 0.01 80 1028.6
20260831075600 62 325 0.0 4.0 0.00 0.01 0.01 79 1028.6
20260831075100 62 332 0.0 4.0 0.00 0.01 0.01 78 1028.5
20260831074606 62 64 0.0 2.0 0.00 0.01 0.01 77 1028.5
20260831074102 63 341 0.0 3.0 0.00 0.01 0.01 76 1028.5
20260831073559 63 313 0.0 3.0 0.00 0.01 0.01 75 1028.5
20260831073100 64 309 0.0 3.0 0.00 0.01 0.01 74 1028.4
20260831072559 64 212 0.0 4.0 0.00 0.01 0.01 73 1028.4
20260831072058 64 337 1.0 4.0 0.00 0.01 0.01 72 1028.4
20260831071559 65 293 0.0 2.0 0.00 0.01 0.01 72 1028.3
20260831071058 65 42 0.0 1.0 0.00 0.01 0.01 71 1028.3
20260831070558 65 42 0.0 3.0 0.00 0.01 0.01 70 1028.2
20260831065557 65 87 0.0 3.0 0.00 0.01 0.01 68 1028.3
20260831065057 66 76 0.0 3.0 0.00 0.01 0.01 66 1028.3
20260831064558 66 59 0.0 5.0 0.00 0.01 0.01 65 1028.2
20260831064059 66 30 1.0 4.0 0.00 0.01 0.01 63 1028.2
20260831063557 67 360 0.0 8.0 0.00 0.01 0.01 62 1028.1
20260831063057 67 82 1.0 8.0 0.00 0.01 0.01 60 1028.2
20260831062557 67 60 0.0 4.0 0.00 0.01 0.01 59 1028.1
20260831062058 67 123 1.0 8.0 0.00 0.01 0.01 58 1028.0
20260831061558 67 266 3.0 8.0 0.00 0.01 0.01 57 1028.0
20260831061056 67 89 0.0 4.0 0.00 0.01 0.01 63 1028.0
20260831060555 67 24 1.0 4.0 0.00 0.01 0.01 62 1028.0
20260831060055 68 65 1.0 4.0 0.00 0.01 0.01 61 1028.0
20260831055556 68 329 0.0 4.0 0.00 0.01 0.01 60 1028.0
20260831055059 68 328 1.0 5.0 0.00 0.01 0.01 58 1027.9
20260831054556 68 49 2.0 8.0 0.00 0.01 0.01 58 1027.9
20260831054056 68 67 1.0 4.0 0.00 0.01 0.01 57 1028.0
20260831053558 69 68 1.0 4.0 0.00 0.01 0.01 54 1027.9
20260831053055 69 94 1.0 9.0 0.00 0.01 0.01 53 1028.0
20260831052555 69 78 3.0 9.0 0.00 0.01 0.01 51 1028.0
20260831052052 70 90 2.0 7.0 0.00 0.01 0.01 52 1028.0
20260831051602 70 254 1.0 4.0 0.00 0.01 0.01 53 1027.9
20260831051052 70 38 2.0 6.0 0.00 0.01 0.01 52 1027.9
20260831050552 70 71 1.0 6.0 0.00 0.01 0.01 52 1027.9
20260831050052 70 99 1.0 6.0 0.00 0.01 0.01 52 1027.9
20260831045551 71 116 1.0 6.0 0.00 0.01 0.01 52 1027.9
20260831045054 71 82 2.0 8.0 0.00 0.01 0.01 51 1027.9
20260831044609 71 171 1.0 9.0 0.00 0.01 0.01 52 1027.9
20260831044049 71 311 1.0 9.0 0.00 0.01 0.01 53 1027.9
20260831043549 72 61 2.0 7.0 0.00 0.01 0.01 52 1027.9
20260831043049 72 53 2.0 5.0 0.00 0.01 0.01 52 1027.9
20260831042548 72 302 0.0 4.0 0.00 0.01 0.01 53 1028.0
20260831042047 72 79 1.0 4.0 0.00 0.01 0.01 52 1028.0
20260831041558 72 100 1.0 6.0 0.00 0.01 0.01 53 1028.0
20260831041047 73 123 2.0 6.0 0.00 0.01 0.01 53 1028.1
20260831040545 72 325 2.0 4.0 0.00 0.01 0.01 53 1028.1
20260831040044 72 83 0.0 3.0 0.00 0.01 0.01 55 1028.2
20260831035542 72 122 0.0 5.0 0.00 0.01 0.01 56 1028.2
20260831035042 72 294 1.0 8.0 0.00 0.01 0.01 53 1028.3
20260831034541 72 252 1.0 8.0 0.00 0.01 0.01 54 1028.3
20260831034041 72 322 1.0 6.0 0.00 0.01 0.01 54 1028.3
20260831033540 72 250 1.0 8.0 0.00 0.01 0.01 52 1028.4
20260831033041 72 275 3.0 8.0 0.00 0.01 0.01 52 1028.4
20260831032539 72 313 3.0 6.0 0.00 0.01 0.01 54 1028.5
20260831032038 71 190 1.0 6.0 0.00 0.01 0.01 53 1028.6
20260831031539 71 265 2.0 9.0 0.00 0.01 0.01 55 1028.6
20260831031036 72 298 4.0 8.0 0.00 0.01 0.01 53 1028.7
20260831030534 72 328 0.0 6.0 0.00 0.01 0.01 57 1028.7
20260831030033 72 322 2.0 6.0 0.00 0.01 0.01 56 1028.9
20260831025531 71 286 1.0 7.0 0.00 0.01 0.01 57 1029.0
20260831025031 70 293 1.0 11.0 0.00 0.01 0.01 57 1029.0
20260831024530 70 276 2.0 11.0 0.00 0.01 0.01 58 1029.2
20260831024027 70 265 1.0 7.0 0.00 0.01 0.01 59 1029.2
20260831023528 69 335 1.0 10.0 0.00 0.01 0.01 59 1029.4
20260831023027 69 265 4.0 10.0 0.00 0.01 0.01 59 1029.4
20260831022526 70 282 2.0 5.0 0.00 0.01 0.01 60 1029.5
20260831022026 70 5 1.0 4.0 0.00 0.01 0.01 60 1029.5
20260831021525 69 211 0.0 5.0 0.00 0.01 0.01 62 1029.6
20260831021023 69 325 2.0 8.0 0.00 0.01 0.01 62 1029.7
20260831020522 69 245 2.0 8.0 0.00 0.01 0.01 63 1029.7
20260831020022 68 321 2.0 8.0 0.00 0.01 0.01 62 1029.8
20260831015520 69 162 3.0 8.0 0.00 0.01 0.01 62 1029.9
20260831015019 68 257 2.0 6.0 0.00 0.01 0.01 64 1030.0
20260831014519 68 117 1.0 8.0 0.00 0.01 0.01 63 1030.1
20260831014019 68 294 4.0 8.0 0.00 0.01 0.01 64 1030.2
20260831013520 68 281 3.0 8.0 0.00 0.01 0.01 65 1030.2
20260831013017 67 107 0.0 7.0 0.00 0.01 0.01 65 1030.3
20260831012516 67 240 3.0 9.0 0.00 0.01 0.01 63 1030.3
20260831012014 67 217 3.0 8.0 0.00 0.01 0.01 64 1030.4
20260831011515 67 320 3.0 6.0 0.00 0.01 0.01 63 1030.5
20260831011013 67 301 1.0 5.0 0.00 0.01 0.01 63 1030.5
20260831010513 67 298 2.0 9.0 0.00 0.01 0.01 64 1030.6
20260831010014 67 269 3.0 9.0 0.00 0.01 0.01 64 1030.6
20260831005511 67 232 0.0 4.0 0.00 0.01 0.01 66 1030.6
20260831005010 67 76 0.0 4.0 0.00 0.01 0.01 66 1030.7
20260831004509 66 28 2.0 4.0 0.00 0.01 0.01 68 1030.7
20260831004008 66 105 0.0 4.0 0.00 0.01 0.01 69 1030.7
20260831003506 65 304 1.0 5.0 0.00 0.01 0.01 71 1030.9
20260831003005 65 308 2.0 10.0 0.00 0.01 0.01 72 1030.8
20260831002504 65 349 2.0 10.0 0.00 0.01 0.01 73 1030.9
20260831002003 65 317 4.0 8.0 0.00 0.01 0.01 74 1030.8
20260831001502 65 251 3.0 9.0 0.00 0.01 0.01 75 1030.8
20260831001001 64 327 4.0 11.0 0.00 0.01 0.01 75 1030.7
20260831000603 64 319 4.0 11.0 0.00 0.01 0.01 76 1030.8
20260830235559 64 14 4.0 10.0 0.00 0.01 0.01 79 1030.7
20260830235057 63 240 4.0 10.0 0.00 0.01 0.01 79 1030.8
20260830234602 63 273 3.0 6.0 0.00 0.01 0.01 79 1030.8
20260830234054 63 271 1.0 6.0 0.00 0.01 0.01 81 1030.7
20260830233556 62 311 2.0 5.0 0.00 0.01 0.01 81 1030.7
20260830233052 62 300 3.0 7.0 0.00 0.01 0.01 82 1030.8
20260830232553 62 241 3.0 7.0 0.00 0.01 0.01 82 1030.8
20260830232050 62 274 3.0 7.0 0.00 0.01 0.01 82 1030.8
20260830231550 62 259 3.0 7.0 0.00 0.01 0.01 83 1030.7
20260830231048 61 320 3.0 7.0 0.00 0.01 0.01 83 1030.7
20260830230547 61 298 1.0 5.0 0.00 0.01 0.01 84 1030.7
20260830230048 61 257 0.0 4.0 0.00 0.01 0.01 84 1030.7
20260830225646 61 346 1.0 4.0 0.00 0.01 0.01 85 1030.6
20260830225044 60 274 0.0 2.0 0.00 0.01 0.01 86 1030.6
20260830224543 60 317 0.0 3.0 0.00 0.01 0.01 87 1030.7
20260830224042 60 317 0.0 3.0 0.00 0.01 0.01 87 1030.7
20260830223542 59 295 0.0 3.0 0.00 0.01 0.01 87 1030.6
20260830223042 59 287 0.0 1.0 0.00 0.01 0.01 88 1030.7
20260830222539 59 287 0.0 0.0 0.00 0.01 0.01 88 1030.7
20260830222042 58 287 0.0 2.0 0.00 0.01 0.01 89 1030.6
20260830221540 58 286 0.0 2.0 0.00 0.01 0.01 89 1030.6
20260830221040 58 319 0.0 3.0 0.00 0.01 0.01 90 1030.6
20260830220534 57 319 2.0 3.0 0.00 0.01 0.01 90 1030.5
20260830220033 57 311 2.0 3.0 0.00 0.01 0.01 90 1030.5
20260830215532 56 310 0.0 3.0 0.00 0.01 0.01 91 1030.5
20260830215033 56 310 1.0 3.0 0.00 0.01 0.01 91 1030.5
20260830214530 56 311 0.0 3.0 0.00 0.01 0.01 92 1030.5
20260830214028 55 305 0.0 2.0 0.00 0.01 0.01 91 1030.4
20260830213528 55 305 1.0 3.0 0.00 0.01 0.01 91 1030.4
20260830213028 55 304 1.0 4.0 0.00 0.01 0.01 91 1030.4
20260830212527 54 307 2.0 4.0 0.00 0.01 0.01 91 1030.3
20260830212027 54 315 2.0 4.0 0.00 0.01 0.01 92 1030.3
20260830211527 54 302 2.0 4.0 0.00 0.01 0.01 92 1030.3
20260830211026 54 309 2.0 4.0 0.00 0.01 0.01 92 1030.2
20260830210526 54 317 2.0 5.0 0.00 0.01 0.01 92 1030.1
20260830210024 53 343 3.0 5.0 0.00 0.01 0.01 92 1030.1
20260830205523 53 322 2.0 4.0 0.00 0.01 0.01 92 1030.0
20260830205022 53 317 2.0 4.0 0.00 0.01 0.01 92 1029.9
20260830204523 53 283 1.0 4.0 0.00 0.01 0.01 92 1029.8
20260830204022 53 309 2.0 4.0 0.00 0.01 0.01 92 1029.7
20260830203623 53 318 2.0 4.0 0.00 0.01 0.01 92 1029.6
20260830203042 53 325 2.0 4.0 0.00 0.01 0.01 92 1029.6
20260830202521 53 321 2.0 4.0 0.00 0.01 0.01 92 1029.6
20260830202020 53 311 2.0 4.0 0.00 0.01 0.01 93 1029.5
20260830201521 52 294 0.0 0.0 0.00 0.01 0.01 93 1029.5
20260830201023 52 293 0.0 0.0 0.00 0.01 0.01 94 1029.6
20260830200520 52 293 0.0 0.0 0.00 0.01 0.01 94 1029.6
20260830200020 52 293 0.0 0.0 0.00 0.01 0.01 94 1029.5
20260830195519 52 293 0.0 0.0 0.00 0.01 0.01 94 1029.5
20260830195019 52 293 0.0 0.0 0.00 0.01 0.01 95 1029.3
20260830194519 52 293 0.0 0.0 0.00 0.01 0.01 95 1029.2
20260830194019 52 293 0.0 0.0 0.00 0.01 0.01 95 1029.3
20260830193519 51 293 0.0 0.0 0.00 0.01 0.01 95 1029.3
20260830193018 51 293 0.0 0.0 0.00 0.01 0.01 95 1029.3
20260830192517 52 293 0.0 0.0 0.00 0.01 0.01 95 1029.3
20260830192017 52 293 0.0 0.0 0.00 0.01 0.01 95 1029.2
20260830191517 52 293 0.0 0.0 0.00 0.01 0.01 95 1029.0
20260830191017 52 293 0.0 0.0 0.00 0.01 0.01 95 1029.0
20260830190518 52 293 0.0 0.0 0.00 0.01 0.01 95 1029.1
20260830190025 52 313 0.0 0.0 0.00 0.01 0.01 95 1029.0
20260830185515 52 313 0.0 0.0 0.00 0.01 0.01 95 1029.2
20260830185015 52 313 0.0 0.0 0.00 0.01 0.01 95 1029.3
20260830184526 52 313 0.0 0.0 0.00 0.01 0.01 95 1029.2
20260830184014 52 313 0.0 0.0 0.01 0.01 0.01 96 1029.2
20260830183514 52 313 0.0 0.0 0.01 0.01 0.01 95 1029.2
20260830183021 52 313 0.0 0.0 0.01 0.01 0.01 95 1029.2
20260830182514 52 313 0.0 0.0 0.01 0.01 0.01 95 1029.2
20260830182015 52 313 0.0 0.0 0.01 0.01 0.01 95 1029.2
20260830181513 52 313 0.0 0.0 0.01 0.01 0.01 95 1029.2
20260830181011 52 313 0.0 0.0 0.01 0.01 0.01 95 1029.3
20260830180511 52 313 0.0 0.0 0.01 0.01 0.01 95 1029.3
20260830180017 52 313 0.0 0.0 0.01 0.01 0.01 95 1029.2
20260830175510 52 313 0.0 0.0 0.01 0.01 0.01 95 1029.2
20260830175010 52 313 0.0 0.0 0.01 0.01 0.01 95 1029.2
20260830174513 52 313 0.0 0.0 0.01 0.01 0.01 95 1029.2
20260830174009 52 313 0.0 0.0 0.00 0.00 0.00 95 1029.2
20260830173509 52 313 0.0 0.0 0.00 0.00 0.00 95 1029.2
20260830173009 52 313 0.0 0.0 0.00 0.00 0.00 95 1029.2
20260830172513 52 313 0.0 0.0 0.00 0.00 0.00 95 1029.2
20260830172008 52 313 0.0 0.0 0.00 0.00 0.00 95 1029.3
20260830171508 52 313 0.0 0.0 0.00 0.00 0.00 95 1029.2
20260830171009 53 313 0.0 0.0 0.00 0.00 0.00 95 1029.2
20260830170512 53 313 0.0 0.0 0.00 0.00 0.00 95 1029.2
20260830170008 53 313 0.0 0.0 0.00 0.00 0.00 94 1029.3
20260830165505 53 313 0.0 0.0 0.00 0.00 0.00 95 1029.2
20260830165005 53 313 0.0 0.0 0.00 0.00 0.00 94 1029.3
20260830164504 53 313 0.0 0.0 0.00 0.00 0.00 94 1029.3
20260830164006 53 313 0.0 0.0 0.00 0.00 0.00 94 1029.2